CST,Max TemperatureF,Mean TemperatureF,Min TemperatureF,Max Dew PointF,MeanDew PointF,Min DewpointF,Max Humidity, Mean Humidity, Min Humidity, Max Sea Level PressureIn, Mean Sea Level PressureIn, Min Sea Level PressureIn, Max VisibilityMiles, Mean VisibilityMiles, Min VisibilityMiles, Max Wind SpeedMPH, Mean Wind SpeedMPH, Max Gust SpeedMPH,PrecipitationIn, CloudCover, Events, WindDirDegrees
2012-12-1,,,,,,,,,,,,,,,,,,,,,,
2012-12-2,,,,,,,,,,,,,,,,,,,,,,
2012-12-3,,,,,,,,,,,,,,,,,,,,,,
2012-12-4,,,,,,,,,,,,,,,,,,,,,,
2012-12-5,60,50,37,57,41,34,100,68,36,30.30,30.23,30.19,10,10,9,13,6,,0.00,3,,37
2012-12-6,60,56,51,48,47,45,82,70,59,30.13,30.06,30.03,10,10,10,14,7,,0.00,6,,169
2012-12-7,66,58,51,54,51,46,88,79,64,30.04,29.98,29.91,10,10,10,13,8,,0.00,6,,191
2012-12-8,64,58,53,57,54,52,100,88,73,29.99,29.96,29.91,10,10,6,15,5,,0.00,5,,194
2012-12-9,66,60,55,63,57,55,100,88,77,29.99,29.93,29.79,10,10,2,14,5,,0.00,4,,183
2012-12-10,62,46,30,57,46,28,100,97,77,29.98,29.80,29.71,10,6,1,13,7,,0.00,7,,312
2012-12-11,37,30,23,30,27,23,100,87,70,30.19,30.10,29.98,10,10,7,8,4,,0.00,4,,9
2012-12-12,46,34,21,28,25,19,100,79,49,30.30,30.28,30.26,10,10,7,9,2,,0.00,0,,28
2012-12-13,53,35,17,32,25,18,100,83,38,30.38,30.33,30.29,10,10,10,4,0,,0.00,0,,240
2012-12-14,57,39,21,43,33,21,100,83,44,30.35,30.26,30.13,10,10,10,8,1,,0.00,0,,179
2012-12-15,62,52,42,54,44,37,100,74,52,30.15,30.03,29.92,10,10,2,16,7,,0.00,4,,179
2012-12-16,60,56,50,59,55,48,100,95,82,29.92,29.84,29.76,10,9,2,15,7,,0.00,3,,191
2012-12-17,59,50,42,57,51,43,100,98,88,29.80,29.71,29.61,10,8,2,14,4,,0.00,5,,210
2012-12-18,53,43,33,45,38,34,100,82,54,29.96,29.90,29.75,10,10,9,12,5,,0.00,3,,243
2012-12-19,64,47,30,52,43,30,100,83,63,30.07,29.99,29.91,10,10,10,10,2,,0.00,0,,182
2012-12-20,55,44,33,52,40,25,100,80,63,29.90,29.72,29.52,10,9,2,23,14,36,0.00,6,,220
2012-12-21,39,34,28,25,21,16,75,63,52,30.22,30.04,29.86,10,10,10,18,11,28,0.00,3,,294
2012-12-22,42,30,17,25,19,16,100,72,36,30.33,30.23,30.13,10,10,10,7,2,,0.00,0,,218
2012-12-23,48,34,21,45,35,19,100,86,61,30.13,30.05,29.92,10,8,1,13,4,,0.00,4,,197
2012-12-24,51,45,39,52,46,39,100,98,88,29.97,29.87,29.81,10,6,0,8,4,,0.00,7,,196
2012-12-25,48,42,37,48,40,37,100,99,93,30.04,29.92,29.57,10,3,1,18,6,25,0.00,7,,26
2012-12-26,51,40,28,50,37,28,100,97,88,30.03,29.66,29.36,10,8,1,26,12,32,0.00,7,,263
2012-12-27,32,30,28,30,29,28,100,93,87,30.15,30.11,30.02,10,10,10,9,5,,0.00,8,,18
2012-12-28,41,34,28,39,33,28,100,92,81,30.09,29.95,29.71,10,10,2,14,3,,0.00,5,,152
2012-12-29,39,32,26,39,32,23,100,97,86,30.31,30.01,29.75,10,8,2,12,7,,0.00,7,,303
2012-12-30,37,29,21,28,23,19,100,83,65,30.50,30.41,30.32,10,10,10,8,4,,0.00,2,,343
2012-12-31,42,32,21,39,31,21,100,83,65,30.35,30.22,30.03,10,10,10,10,2,,0.00,3,,183